Location: Bailleul
(50.3375°N, 2.8513°E)
Time: 12:34:58
(UTC+00:00)

Terra - Pass Details

Date: 05 August 2021
Orbit: 701 x 703 km, 98.2° (Epoch: 28 September)

Event Time Altitude Azimuth Distance (km) Brightness Sun altitude
Exits shadow 20:54:10 17° 131° (SE) 1,731 3.2 -12.1°
Maximum altitude 20:57:28 43° 67° (ENE) 994 2.4 -12.5°
Drops below altitude 10° 21:01:58 10° 357° (N) 2,185 5.1 -13.0°
Sets 21:04:19 0° 351° (N) 3,108 6.2 -13.2°
